Theta_e
303 302 302 302 302 302 302 302 302 303 303 303 301 299 298 297 297 295 292 292 291 291 291 291 290 290 289 289 289 288 288 286 285 287 287 286 286 286 284 285 287 284 284 284 283 284 284 284 284 284 283 284 283 283 283 283 282 283 283 285 287 288 289 287 285 284 286 287 285 286 286 287 286 285 286 287 287 288 289 289 289 289 289 290 290
302 301 301 302 301 300 299 299 300 301 301 300 299 297 295 294 292 292 292 288 291 291 290 289 289 289 290 289 288 287 288 288 285 286 287 286 285 285 283 284 286 284 284 285 284 284 283 284 284 283 282 283 282 282 281 282 281 281 282 282 282 282 283 285 284 283 282 284 284 285 285 283 284 286 285 285 286 287 286 287 288 288 288 288 289
301 302 302 301 300 299 298 298 298 298 297 296 295 294 293 291 291 292 290 288 288 290 289 289 289 289 288 287 288 287 287 286 285 286 286 286 286 285 285 285 285 285 284 284 283 282 283 282 282 282 282 282 281 281 282 282 282 281 281 281 281 281 282 282 283 282 281 282 284 283 283 284 284 284 285 286 286 286 286 286 286 287 288 288 288
301 302 301 299 297 296 296 295 295 295 295 293 292 291 290 289 289 290 289 288 288 287 288 288 288 288 287 287 287 287 286 286 285 286 286 286 286 286 285 285 285 284 284 283 283 282 282 282 281 282 282 281 281 282 282 282 282 281 281 281 281 281 281 281 282 282 282 281 282 283 283 283 284 285 286 286 286 285 286 285 286 286 286 287 287
299 298 297 296 295 295 294 294 294 293 292 291 290 289 288 288 289 289 288 288 287 287 286 287 287 287 288 287 287 286 286 286 286 286 285 285 285 285 285 284 284 283 283 283 283 282 282 281 281 282 281 281 281 281 282 281 281 281 281 281 281 281 281 281 281 281 281 281 281 283 283 283 284 284 285 284 284 284 285 284 285 285 286 286 286
297 296 296 295 293 293 292 292 292 291 290 289 288 288 288 288 288 287 288 288 287 287 287 286 287 286 286 286 286 286 285 285 285 285 285 285 285 284 283 283 283 283 282 282 282 282 282 281 281 281 281 281 281 281 281 281 281 281 281 281 281 281 281 281 281 281 281 281 282 281 283 282 282 283 284 283 282 282 283 284 284 285 284 284 285
294 295 294 294 292 291 291 291 290 289 288 288 287 287 287 287 287 287 287 287 287 286 286 286 285 286 285 285 285 285 285 285 284 284 284 284 284 283 283 282 282 282 281 282 281 281 281 281 281 281 281 280 281 281 280 281 281 280 281 280 280 280 280 281 282 282 282 282 282 283 282 283 283 281 282 283 283 283 282 282 282 283 283 283 282
293 293 293 292 291 290 289 288 288 288 288 287 287 287 287 286 287 286 286 286 286 286 285 285 284 285 285 284 284 284 284 284 284 284 284 284 283 283 283 282 282 281 281 281 281 281 281 281 281 281 280 280 280 280 280 280 281 280 280 280 280 281 281 282 282 282 282 281 281 281 281 281 281 281 282 282 281 281 283 281 280 280 281 283 283
292 292 291 291 289 288 287 287 287 287 287 287 286 286 286 285 285 285 285 285 285 284 284 285 284 284 284 284 284 284 284 285 285 285 284 283 283 283 282 282 282 282 281 281 281 281 281 281 280 281 282 283 284 284 284 284 282 280 280 282 282 282 282 282 282 281 281 280 280 281 280 280 280 279 279 280 280 279 281 281 280 281 281 281 282
290 290 290 288 286 286 286 286 286 286 286 286 286 285 285 284 284 284 284 284 283 283 283 283 284 283 283 283 283 283 284 285 287 289 288 285 284 283 283 282 282 281 281 281 280 280 280 280 280 282 283 283 283 283 284 284 284 283 282 282 282 281 281 281 280 280 280 279 279 279 278 278 279 279 279 280 281 281 280 281 279 280 281 281 282
288 288 288 286 286 286 286 286 286 286 286 285 284 284 284 284 284 283 283 283 283 283 283 283 282 282 282 282 282 283 284 286 289 290 290 289 285 283 283 282 282 281 280 279 279 279 279 279 280 280 280 280 279 282 282 283 283 284 284 284 284 282 281 280 280 280 279 279 280 279 278 278 279 280 280 280 280 280 280 280 280 280 279 278 277
288 288 287 286 286 286 286 285 285 285 284 284 284 284 283 283 283 283 282 282 282 282 282 282 282 282 282 281 281 282 284 288 289 289 289 289 286 282 282 282 281 280 279 279 278 278 278 279 279 280 279 278 279 278 280 282 283 284 284 284 284 284 284 282 281 279 280 279 278 279 279 278 279 280 280 280 280 280 281 281 280 280 279 278 279
287 287 286 285 285 285 285 285 285 284 284 283 283 283 283 283 282 282 282 282 282 282 281 281 281 281 281 280 280 281 282 288 288 288 288 288 286 283 281 281 280 279 278 278 278 278 278 279 278 279 279 280 278 279 280 280 283 284 284 284 283 284 284 285 285 283 282 280 279 279 279 279 279 280 281 281 282 280 281 280 280 280 280 279 279
287 286 285 285 285 285 285 285 284 284 283 283 282 282 282 282 282 282 281 281 281 281 281 280 280 280 280 280 280 280 282 286 287 287 287 286 285 283 280 280 279 278 278 277 277 278 278 278 277 277 278 279 279 279 280 281 282 282 282 282 282 283 284 284 284 284 283 281 280 279 280 281 280 281 282 283 281 280 280 279 280 279 279 279 280
286 285 285 285 285 284 284 284 284 283 282 282 282 282 282 281 281 281 281 281 281 281 280 280 279 279 279 279 279 280 282 286 286 287 287 285 284 282 279 279 278 278 278 278 278 278 278 278 278 278 279 279 279 281 281 282 282 282 282 281 282 282 282 282 281 281 281 282 281 281 282 282 282 283 283 283 282 282 282 281 281 280 281 282 281
285 285 285 284 284 284 284 283 283 282 282 281 281 281 281 281 281 280 280 280 279 279 279 279 279 278 278 279 278 278 281 285 285 285 285 284 283 280 279 278 278 278 278 279 279 279 279 279 278 279 279 279 280 283 284 283 282 281 281 281 281 282 281 282 283 284 283 283 283 283 283 283 284 283 283 283 282 282 282 282 282 281 279 278 277
284 284 284 284 284 284 284 283 282 282 281 281 281 281 281 280 280 279 279 279 279 279 278 278 278 278 277 278 277 277 278 282 284 284 284 283 281 278 278 277 278 278 278 279 279 279 279 279 279 278 279 279 281 284 284 284 281 281 280 280 280 280 279 279 282 284 284 284 284 284 284 284 284 284 284 284 283 282 281 279 277 279 277 275 275
284 284 284 284 283 283 283 283 282 281 281 281 281 281 280 279 279 279 279 279 278 278 277 277 277 278 277 277 277 277 277 280 283 283 284 283 280 278 277 277 277 278 278 279 279 279 279 280 279 279 279 279 283 284 284 283 281 281 280 279 277 276 277 279 281 281 283 282 282 282 282 282 282 283 283 283 283 282 279 276 277 278 276 276 274
284 284 284 283 283 283 282 282 282 281 281 281 281 280 279 279 278 278 278 278 278 278 278 277 277 277 277 277 278 276 275 278 282 283 283 282 280 278 277 276 277 278 277 277 278 278 278 279 279 279 280 281 283 284 284 283 281 280 278 276 275 275 278 279 279 278 277 276 276 277 277 279 278 278 279 282 282 281 279 278 278 277 275 275 275
285 284 283 282 282 281 281 281 281 281 280 280 279 279 278 277 277 277 277 277 277 277 277 277 276 276 276 275 275 275 275 276 279 282 282 282 281 279 278 276 277 277 277 277 276 277 278 278 278 280 282 283 283 283 283 283 280 278 277 275 275 276 279 278 277 276 275 275 275 276 276 276 277 277 277 278 278 279 279 279 279 278 277 276 276
283 283 282 281 281 280 280 280 280 279 279 279 278 277 276 276 276 276 275 275 275 275 275 275 274 274 275 274 275 275 275 275 277 281 281 281 281 280 277 278 278 277 276 276 277 276 277 277 278 280 282 282 282 282 281 281 280 277 276 276 277 278 279 275 275 276 274 275 275 275 275 275 275 276 276 276 277 278 278 279 280 279 278 276 276
282 281 281 280 280 279 279 278 278 278 277 277 276 275 274 274 275 274 274 274 274 273 273 274 274 274 274 274 274 274 275 276 276 278 280 280 281 281 278 278 279 278 276 276 276 276 276 277 277 280 281 281 280 280 280 279 279 277 277 279 279 278 275 275 274 274 274 274 274 274 274 274 273 274 274 275 276 277 278 278 278 279 279 280 278
280 280 279 278 277 277 276 276 276 276 275 275 274 273 273 272 272 273 273 273 273 273 273 273 273 273 273 273 273 273 274 274 276 276 278 279 280 280 280 279 280 278 277 275 276 276 277 278 279 280 280 279 279 279 278 278 276 276 278 278 277 277 275 273 274 273 273 273 273 272 272 272 272 272 273 274 276 277 277 277 278 279 279 280 281
279 278 277 276 275 274 274 274 274 274 273 273 273 272 272 272 272 272 273 273 273 273 273 273 272 272 272 272 273 273 273 273 275 276 277 278 279 279 280 280 279 278 277 275 276 277 277 278 279 280 278 278 277 277 276 276 275 276 276 276 275 274 272 272 272 273 272 271 270 270 270 271 271 272 273 275 276 276 276 277 278 278 279 279 280
277 276 275 274 274 273 272 272 272 272 272 273 273 272 271 272 272 272 273 274 274 273 273 272 272 272 271 271 272 272 273 272 272 274 276 277 278 279 279 279 278 278 276 276 277 277 279 279 278 277 276 276 275 275 273 274 275 274 275 274 272 269 270 271 271 270 269 268 268 269 269 270 271 272 274 276 276 276 276 276 277 277 278 279 279
276 275 274 273 273 272 271 270 270 271 271 272 273 273 273 273 273 273 273 273 273 273 272 271 271 271 271 271 271 271 272 271 272 273 275 276 277 277 277 277 277 277 277 277 278 279 278 276 276 275 274 274 272 268 269 270 272 272 272 271 267 268 269 269 268 267 267 267 268 267 268 269 271 272 275 275 274 274 274 274 275 276 277 277 277
275 274 273 273 272 272 272 271 271 270 270 270 271 272 273 274 273 273 273 272 272 272 271 270 270 270 269 270 271 271 271 271 272 273 274 274 275 276 275 275 276 277 275 276 276 274 273 273 271 273 272 273 272 271 270 269 267 267 265 266 266 267 268 268 267 266 267 267 267 267 268 270 272 273 272 273 273 273 274 274 274 274 276 276 275
275 273 273 272 272 271 271 272 271 271 270 271 271 272 273 273 273 273 272 272 272 271 271 270 270 270 270 270 270 270 270 271 271 272 273 275 275 275 275 275 275 274 274 275 272 270 267 271 270 267 266 265 265 263 262 263 264 265 264 264 264 266 268 268 268 267 267 267 267 268 269 270 270 271 272 272 272 272 274 273 273 274 275 275 273
274 272 272 272 271 271 271 271 271 271 271 271 272 273 272 273 273 273 273 273 273 273 272 272 271 272 271 271 270 269 270 270 271 275 275 277 275 274 274 274 274 273 275 275 269 266 265 263 264 264 263 263 262 261 262 262 263 263 263 263 263 264 264 264 263 264 266 266 266 267 267 269 269 270 271 270 271 271 273 273 273 273 274 274 272
272 272 271 271 271 270 270 270 270 270 271 271 270 270 272 274 273 272 271 273 274 275 275 272 272 272 271 272 272 270 270 271 275 277 277 277 277 277 276 276 276 274 275 274 269 261 262 260 261 261 261 261 261 262 262 262 262 262 263 265 264 263 264 264 264 264 265 266 266 267 267 268 268 269 269 269 270 271 272 273 272 273 272 271 270
272 272 271 271 271 271 270 270 270 270 271 271 271 270 271 273 275 274 274 275 276 276 276 276 276 275 272 270 273 274 275 276 277 277 277 277 277 276 276 276 275 275 274 266 262 261 260 260 260 260 261 261 262 262 262 262 262 262 262 263 263 263 263 263 263 264 265 265 266 267 267 267 267 268 268 268 269 270 271 272 272 272 271 270 269
273 272 272 272 272 271 271 271 270 270 270 270 271 271 271 271 272 275 276 276 277 277 277 277 276 276 275 273 272 273 276 277 277 276 276 276 276 275 275 275 274 273 272 270 261 261 259 259 259 260 262 261 262 262 262 261 261 261 261 261 262 262 262 262 264 264 264 265 265 266 266 266 267 267 268 268 269 269 270 270 271 271 270 270 269
274 273 272 271 271 271 270 270 270 270 269 270 271 272 272 271 270 270 274 277 278 278 278 277 277 277 276 276 276 274 275 276 276 276 276 275 275 274 275 274 273 272 270 262 258 259 260 260 260 260 260 260 260 261 261 261 261 261 261 260 260 261 262 263 264 263 264 265 265 265 266 266 266 267 267 268 268 268 269 269 270 270 269 268 268
273 273 272 271 271 270 270 270 269 270 270 270 271 272 272 272 272 271 271 272 273 275 276 277 276 277 277 276 276 275 275 275 275 275 275 275 274 274 273 271 272 271 266 259 258 258 259 259 260 259 259 260 260 260 260 260 260 260 260 260 260 261 262 263 263 263 264 264 264 264 265 266 266 265 266 267 268 269 269 269 269 268 267 266 266
271 270 269 269 270 270 270 270 270 270 270 270 271 271 271 271 271 271 271 270 269 268 269 271 274 276 275 275 275 275 275 275 275 274 274 274 273 272 271 264 261 259 259 258 259 259 259 259 258 258 258 258 259 259 258 258 258 259 259 259 260 261 262 262 262 263 262 262 263 264 265 265 264 265 265 266 267 267 268 268 268 268 266 265 265
270 270 269 269 269 269 269 269 270 269 269 269 270 270 270 270 270 270 270 270 269 267 266 267 267 273 274 273 274 274 275 274 274 274 273 273 272 270 259 257 257 257 257 257 258 259 258 256 257 256 256 257 257 256 256 256 257 258 258 259 260 261 261 262 262 262 262 262 262 263 264 263 264 264 265 266 267 267 268 268 268 267 266 265 265
269 269 269 269 269 268 268 268 269 269 270 269 268 268 268 268 268 268 268 268 266 266 266 264 263 264 270 266 269 273 274 273 273 272 272 271 270 263 257 257 257 257 257 256 257 257 255 254 255 254 255 255 255 254 255 255 256 257 259 259 259 260 261 262 262 262 261 261 261 262 262 263 263 264 265 265 266 267 268 268 267 266 266 265 265
269 269 268 267 267 267 267 268 268 269 268 267 267 267 266 267 266 266 266 266 265 264 263 264 265 264 263 264 268 266 270 271 271 270 270 268 261 255 255 256 256 256 255 254 256 255 254 252 251 252 253 253 253 253 254 254 255 256 256 257 259 260 263 262 262 261 261 261 260 261 261 262 263 264 265 265 266 266 267 267 266 265 265 264 264
266 268 268 268 268 267 267 266 267 267 267 266 266 266 265 265 265 265 265 265 264 264 264 264 264 263 263 263 263 265 266 262 260 260 258 256 254 253 253 254 255 254 254 254 255 256 253 252 253 254 253 252 254 253 254 254 255 255 256 257 258 259 260 260 260 261 261 260 260 260 261 261 263 263 264 265 265 266 266 266 266 265 264 263 263
266 266 267 268 267 267 266 266 266 266 265 265 265 265 265 265 265 265 264 264 264 264 263 263 263 263 262 261 262 262 262 261 260 258 257 257 255 254 253 254 255 255 254 254 254 253 254 252 252 252 253 252 252 252 253 255 254 255 255 256 257 258 259 260 260 260 260 260 260 260 260 261 262 263 263 264 265 266 266 266 266 265 264 263 262
266 265 265 267 267 266 265 265 266 266 266 265 266 265 265 266 265 265 264 264 264 263 262 262 262 263 262 262 265 265 262 260 259 257 257 257 256 255 255 255 255 253 254 254 254 253 253 252 252 252 252 252 252 253 253 253 254 254 255 257 257 258 258 258 259 260 260 260 260 260 260 260 261 262 262 263 266 266 266 266 265 265 264 262 261
265 265 265 266 266 266 265 265 266 266 266 265 265 265 265 265 265 264 263 264 264 263 262 262 262 261 263 265 266 267 262 259 258 258 257 257 257 257 256 254 253 254 254 254 253 253 252 252 252 252 252 252 252 252 253 252 253 254 255 257 257 257 258 258 259 260 260 260 260 260 260 260 261 262 262 264 264 264 265 265 265 265 264 262 261
265 265 265 265 265 265 265 265 266 265 265 265 265 265 265 265 264 264 263 263 263 263 262 261 261 260 261 266 266 267 262 259 259 259 258 258 257 257 256 256 256 255 255 254 253 252 253 252 252 251 252 253 252 252 252 252 253 254 255 257 258 258 258 258 258 260 261 260 260 260 260 260 260 261 261 263 263 264 264 264 264 264 264 262 261
265 265 265 266 266 266 266 266 265 265 265 265 265 264 264 264 264 263 263 263 263 263 262 262 261 260 261 264 265 265 261 259 259 259 258 258 257 257 257 256 255 253 252 252 252 251 251 250 250 251 250 251 251 250 252 251 252 254 256 257 258 258 259 258 258 259 261 260 260 260 259 260 260 260 261 262 262 262 263 263 264 263 263 262 260
265 265 265 265 266 266 265 265 265 265 264 264 264 264 264 264 264 263 263 263 263 263 262 262 262 261 261 261 262 263 261 259 258 258 257 257 257 257 257 255 254 254 254 253 252 250 249 251 250 249 249 250 251 251 251 252 251 252 254 256 256 257 258 258 259 261 262 261 260 260 259 259 259 259 260 261 262 262 262 263 263 263 263 262 261
264 264 265 265 265 265 265 265 264 264 264 264 263 263 263 263 263 263 263 263 263 262 262 261 260 261 261 260 261 261 260 259 258 258 258 257 257 257 256 255 254 253 253 253 251 250 251 250 250 250 251 250 251 250 251 250 252 252 252 254 256 257 258 259 260 261 262 261 259 259 259 259 259 259 260 261 261 261 261 262 262 263 262 262 262
262 262 263 263 263 263 264 264 264 263 263 264 264 263 263 263 263 263 263 263 263 262 261 261 260 260 260 260 260 260 260 258 258 258 258 258 257 257 256 255 254 253 252 252 250 251 251 252 250 251 251 250 250 251 250 250 249 251 252 253 254 255 255 258 260 262 262 261 260 259 258 258 258 258 259 260 260 260 261 261 262 262 262 262 261
261 261 262 262 263 263 263 263 262 262 262 262 263 263 263 263 263 263 263 262 262 262 261 261 260 260 260 260 260 259 259 259 259 258 258 257 257 256 255 254 254 253 252 251 250 250 250 249 250 250 251 251 252 251 251 249 249 250 251 252 253 254 256 258 258 260 262 261 259 256 256 256 256 257 258 258 259 259 259 259 261 261 261 261 261
261 261 261 261 262 262 262 262 262 262 262 262 262 263 262 263 263 263 262 262 262 262 261 260 260 260 260 260 260 259 259 258 257 257 257 257 256 255 254 254 254 253 252 252 251 250 250 249 250 250 251 250 250 251 250 250 251 251 250 251 253 256 258 258 259 260 262 262 258 254 252 253 254 255 257 258 258 258 258 258 259 260 261 261 261
260 261 261 261 261 262 262 262 262 262 262 263 263 263 263 263 262 262 262 262 262 261 261 261 261 260 260 259 259 258 258 257 258 258 257 256 256 255 255 254 253 252 253 253 252 250 249 247 248 249 249 249 250 250 249 250 250 251 250 252 255 257 258 259 260 261 262 260 258 254 253 253 252 253 254 255 256 257 257 258 259 260 260 260 260
260 260 260 261 261 261 262 262 262 262 262 262 263 263 263 263 262 262 262 261 261 261 261 261 261 260 260 259 259 259 258 258 258 258 257 256 256 255 254 253 253 253 253 252 251 250 249 249 249 249 249 250 251 251 249 250 249 250 253 256 257 258 259 260 260 261 262 262 259 255 254 253 252 253 254 255 255 256 258 258 258 258 259 259 259
Wind_Speed
5 6 6 6 8 8 8 8 8 8 9 8 9 8 7 8 7 7 6 6 7 7 7 7 6 7 6 6 6 6 6 5 4 5 6 6 4 5 5 6 7 5 5 6 5 5 5 4 4 4 4 5 4 4 4 4 3 3 3 2 3 3 4 7 10 15 18 7 4 10 10 10 11 7 12 13 13 11 11 11 13 12 12 11 13
6 6 5 7 8 8 8 6 8 8 9 8 9 8 7 7 8 7 7 5 6 8 7 6 6 6 7 6 6 6 5 6 4 5 6 6 5 4 6 6 6 5 5 6 6 6 5 5 4 4 4 3 4 4 3 3 3 3 3 2 3 4 3 3 7 10 18 18 13 7 9 4 11 9 11 13 16 16 15 12 10 11 12 12 13
6 6 7 7 7 7 8 7 7 8 9 7 8 8 7 6 6 8 7 6 5 7 7 7 7 7 7 6 6 6 6 5 4 5 5 6 6 5 5 6 6 6 7 5 4 3 3 3 3 3 3 4 4 3 3 3 3 3 4 3 3 4 4 4 6 11 14 18 15 12 11 10 8 12 12 12 12 13 17 14 13 12 11 12 12
6 6 6 7 7 7 7 7 8 8 9 7 9 7 7 6 5 8 7 6 7 5 6 7 7 7 8 6 6 6 6 5 5 5 5 5 6 6 6 6 6 6 5 3 2 2 2 3 3 3 4 4 4 4 4 4 4 3 4 4 3 4 4 4 5 7 11 15 18 13 11 13 13 10 11 12 12 12 12 14 13 14 14 12 11
6 6 8 8 6 8 7 7 8 7 8 7 8 7 7 7 6 8 8 7 7 7 6 6 7 7 8 7 6 6 5 5 6 6 5 5 6 6 6 6 5 4 3 2 2 3 3 3 4 4 4 4 4 5 5 5 5 5 5 5 5 5 4 5 6 6 9 13 16 14 13 11 11 12 9 13 15 14 14 14 13 12 13 12 11
6 7 7 8 7 7 7 6 8 8 8 8 8 8 8 7 8 7 8 9 7 6 8 6 6 7 6 6 6 6 5 5 6 6 5 5 6 6 5 5 4 3 3 3 3 3 3 3 3 3 3 4 5 5 5 6 6 5 6 6 5 5 5 5 6 7 8 11 12 16 14 13 13 11 9 7 12 15 15 16 14 10 11 14 11
5 7 7 8 8 7 7 7 8 8 8 8 8 8 8 8 9 9 7 9 9 8 6 7 5 7 7 7 7 7 6 6 6 5 5 5 5 5 4 4 3 3 3 3 3 3 3 3 3 3 3 4 4 5 5 6 5 5 6 5 5 5 6 6 7 8 9 10 10 10 13 11 10 14 11 10 11 10 13 12 16 15 13 14 17
6 7 7 7 7 7 6 7 7 8 7 8 8 8 8 8 8 7 7 8 8 8 9 9 7 7 7 7 6 7 7 6 5 5 5 5 5 4 4 3 3 3 3 3 3 3 2 2 3 3 3 4 4 4 4 5 5 4 5 4 5 6 7 7 7 8 9 9 10 11 10 13 12 9 10 10 10 9 7 11 13 16 14 15 14
7 7 7 8 7 7 6 6 6 7 8 8 8 8 7 7 7 7 6 6 6 7 7 9 9 9 7 7 7 6 7 6 4 4 5 4 4 4 3 3 4 4 3 3 2 2 3 3 3 3 5 7 9 7 8 8 5 5 5 5 6 7 7 7 7 8 9 9 10 8 10 12 10 10 11 11 12 13 14 11 12 13 13 14 15
7 7 7 7 6 6 7 6 6 7 8 8 8 8 7 7 7 7 7 7 7 7 7 7 8 9 9 7 6 6 6 4 7 9 7 5 4 4 4 4 4 3 3 3 3 3 3 3 4 7 8 7 7 9 10 10 10 7 6 6 7 7 7 7 7 7 8 11 11 11 12 14 12 10 12 11 13 12 14 13 13 13 12 13 15
6 7 7 6 7 7 7 7 7 8 7 8 7 8 8 8 8 8 7 7 8 7 8 9 8 7 8 8 7 6 5 5 10 10 11 9 5 5 5 4 3 3 3 3 3 3 3 3 3 4 4 5 4 8 11 10 10 11 12 11 10 9 9 10 9 8 8 9 10 11 11 14 14 12 11 12 10 11 12 13 13 13 12 15 19
9 8 8 8 8 9 8 9 9 8 8 9 9 8 8 8 8 9 9 9 7 7 8 8 8 7 7 7 7 6 5 8 11 11 10 11 9 6 5 4 3 2 2 2 2 2 3 3 3 2 3 3 4 4 7 10 11 12 12 12 13 14 13 10 10 10 10 10 11 10 10 11 15 11 11 10 14 13 15 14 11 13 12 15 13
9 9 8 9 9 9 9 10 10 10 10 9 9 8 9 9 9 9 9 8 8 9 8 8 8 7 8 8 7 6 5 9 11 11 11 12 12 7 5 3 3 3 2 2 2 2 2 3 3 3 2 6 5 5 6 6 9 11 12 13 13 14 14 16 15 12 10 11 12 14 12 11 13 11 11 13 13 13 13 13 13 12 14 15 17
9 9 10 10 10 10 10 10 11 10 10 9 9 9 9 10 8 7 8 7 8 8 7 9 7 7 7 8 7 6 5 8 11 11 11 12 11 8 4 4 3 2 1 1 1 2 3 2 2 4 3 4 4 5 6 6 6 6 6 7 7 9 13 14 15 18 14 10 11 13 13 9 13 13 14 12 13 12 13 13 14 15 16 18 19
8 9 10 10 10 10 10 10 10 10 9 9 9 9 9 8 8 7 7 8 9 9 9 8 7 7 7 7 7 7 5 10 11 11 11 12 11 7 4 3 2 1 1 1 1 2 2 2 2 3 4 6 6 8 8 8 7 7 7 8 8 7 7 8 7 7 7 8 10 11 13 12 11 13 12 12 12 12 11 15 15 15 15 17 15
8 7 9 9 9 9 10 10 9 9 9 9 9 9 8 9 9 7 6 6 5 6 5 6 8 7 6 7 8 8 6 11 11 11 11 11 11 5 3 2 1 1 0 1 1 2 2 2 2 4 6 6 8 14 13 10 8 9 10 9 8 7 6 7 13 14 13 12 11 11 12 16 21 18 18 16 13 12 13 12 12 11 14 13 14
7 8 8 9 9 9 10 11 11 11 10 10 10 9 10 8 7 6 8 7 8 7 7 5 5 7 7 6 8 8 6 8 10 10 10 12 7 3 2 1 1 2 1 1 0 2 3 2 2 4 6 6 10 15 16 15 8 10 10 10 9 7 7 7 11 16 18 20 22 24 25 24 24 25 25 27 20 16 11 12 12 13 13 16 14
10 10 11 11 11 10 10 11 12 11 11 11 11 9 7 6 7 7 10 10 8 7 7 7 5 5 7 7 7 8 6 6 10 10 9 11 7 3 2 2 1 2 2 2 2 2 2 6 6 5 6 6 12 16 17 13 8 9 10 11 12 11 9 8 9 10 15 17 19 20 20 21 22 24 25 23 23 17 10 12 13 12 14 13 15
13 14 12 10 9 9 9 8 9 10 11 10 9 10 9 9 6 5 5 7 8 7 6 8 7 6 6 7 9 8 6 5 9 9 9 9 6 2 2 1 2 3 2 2 3 2 2 4 7 7 7 9 15 15 16 13 8 9 9 10 11 12 10 11 11 13 14 14 12 12 12 13 11 10 11 20 21 16 10 12 12 12 14 15 15
11 8 8 8 8 7 7 8 8 9 10 8 7 7 6 7 7 7 6 6 7 6 6 7 8 7 6 6 6 5 6 4 5 9 7 6 7 4 2 2 2 3 2 1 1 2 2 3 5 8 10 13 14 14 14 15 10 7 8 7 10 11 11 12 13 13 12 12 13 12 13 13 11 8 9 9 11 9 10 10 9 11 12 14 15
9 10 9 10 9 9 8 9 10 8 7 9 8 7 6 7 7 7 8 6 7 7 7 7 8 7 6 5 5 5 4 4 3 7 7 6 6 5 2 2 2 2 1 1 2 3 3 3 4 7 11 13 12 13 13 14 12 6 6 7 9 14 16 11 15 18 12 11 12 11 11 10 10 9 8 8 8 10 9 11 8 10 12 13 12
8 9 10 10 9 8 8 7 7 8 8 9 10 8 5 6 7 8 7 7 8 8 6 6 7 7 5 4 4 4 4 5 3 5 6 6 5 5 2 1 1 2 1 1 2 2 3 3 4 7 11 11 11 12 12 11 11 5 8 14 17 19 13 10 10 10 9 10 10 11 9 10 12 11 11 11 11 11 11 10 12 13 10 10 12
8 7 7 7 6 6 6 7 7 6 7 7 9 9 7 7 6 7 8 8 9 9 7 7 7 6 5 4 3 2 2 1 5 3 5 5 5 3 3 2 4 1 0 1 2 2 3 4 4 8 10 10 10 10 10 11 7 8 14 14 16 17 13 8 9 9 9 11 10 11 12 11 11 11 14 12 13 13 13 12 14 11 13 13 13
7 7 7 7 7 6 6 6 6 6 7 8 8 9 9 7 7 7 7 8 8 8 6 6 6 6 5 5 3 2 1 1 2 5 4 4 3 2 2 3 3 1 0 1 2 3 3 4 4 9 9 9 9 9 10 10 8 12 13 14 14 13 7 8 8 9 10 10 10 12 11 11 11 12 13 12 14 14 16 13 12 13 14 13 13
10 9 9 8 8 7 7 7 7 7 7 9 10 9 9 9 9 5 7 6 7 8 7 6 7 6 5 4 4 4 2 2 1 1 3 2 1 1 2 2 1 2 1 3 4 4 4 6 7 7 7 8 9 9 7 9 12 12 13 14 11 5 7 7 8 8 9 9 10 9 10 10 11 11 12 11 13 13 13 11 11 11 11 11 12
11 11 10 9 10 9 10 7 7 7 7 6 7 8 11 10 9 8 6 6 7 8 8 7 7 6 4 4 5 4 3 2 2 1 2 2 2 1 1 1 2 3 2 3 4 3 4 6 6 6 6 5 4 3 3 5 10 11 12 11 5 6 6 7 7 9 9 10 10 10 11 11 12 11 11 11 11 12 11 12 14 14 12 14 12
11 10 11 10 9 10 11 10 9 7 6 5 5 6 6 7 8 9 7 8 7 7 7 9 9 5 4 5 4 4 3 3 3 3 3 3 3 2 1 2 3 3 3 4 2 4 4 3 2 4 4 8 7 7 5 6 5 5 5 4 5 5 6 6 8 8 10 9 10 10 11 10 11 10 10 10 11 10 9 13 12 12 13 11 12
12 11 11 9 9 9 9 10 11 9 8 8 8 7 6 6 9 11 11 11 10 9 8 9 10 9 9 6 5 4 4 4 4 4 4 4 3 3 3 4 4 4 4 2 4 2 2 2 3 1 1 2 3 2 3 3 5 5 5 4 4 5 6 9 8 6 7 8 9 9 10 9 9 10 10 10 10 9 12 11 12 12 12 13 14
8 8 8 8 8 7 7 8 8 9 8 6 4 4 8 8 7 5 1 2 5 10 11 8 7 7 7 9 9 6 5 6 6 6 5 6 5 4 4 5 4 3 2 5 4 1 1 1 2 3 3 4 4 4 5 5 5 5 5 5 5 5 5 5 7 7 8 8 9 9 9 9 10 9 11 8 9 11 10 10 10 12 11 9 10
8 9 8 8 8 8 7 8 7 8 9 9 8 4 3 3 2 6 6 5 5 4 6 6 8 8 7 5 6 5 8 6 7 9 8 8 7 7 6 5 4 3 3 7 6 4 3 3 3 3 3 4 3 4 4 5 6 6 6 7 7 5 6 6 6 7 8 8 8 8 9 9 10 10 9 10 11 8 10 12 11 11 12 11 10
9 9 10 10 11 10 9 9 8 8 8 9 8 9 6 4 6 6 6 7 8 10 9 7 12 10 7 6 6 6 6 9 9 8 8 8 8 7 6 5 4 4 5 6 3 3 3 4 3 3 3 2 2 3 4 5 6 6 6 6 5 6 7 6 6 8 8 8 8 8 8 9 9 10 10 11 10 11 9 8 8 9 10 11 12
11 11 11 9 10 10 9 9 9 9 8 9 10 9 9 8 5 6 9 8 9 10 10 12 13 12 11 8 7 6 8 10 10 9 9 9 7 7 6 6 5 5 6 7 5 3 3 3 2 2 2 2 3 3 4 3 4 5 5 6 6 6 6 6 7 7 8 8 9 9 9 9 9 10 10 11 12 11 11 10 10 10 11 10 10
11 10 10 10 10 10 9 9 10 10 12 12 10 9 11 11 11 9 5 9 11 12 12 12 13 12 12 12 11 7 8 10 10 11 10 9 7 7 7 7 6 6 7 6 5 3 2 2 1 1 1 1 2 2 3 3 4 5 5 5 6 7 6 7 8 6 6 8 9 9 9 9 10 10 10 11 12 12 11 10 10 9 9 10 10
9 9 10 11 11 10 10 10 11 12 12 13 12 11 11 11 12 12 11 8 8 8 10 12 12 12 12 13 12 11 11 10 11 10 10 9 8 8 8 5 7 7 7 5 3 3 2 1 0 0 0 1 1 2 2 3 4 4 4 5 5 6 7 7 5 6 6 8 8 8 9 9 9 10 10 10 9 9 10 10 10 10 10 9 11
6 7 10 9 9 10 9 9 10 10 10 11 10 10 10 8 9 12 13 15 14 12 10 8 11 13 9 9 11 12 11 11 11 11 11 9 9 10 8 5 3 3 4 2 2 2 2 2 2 1 1 1 2 2 2 3 3 3 4 5 6 6 6 6 6 6 7 7 8 7 9 10 10 10 10 11 10 10 10 9 9 9 9 10 9
7 6 7 9 8 8 8 8 9 10 11 11 9 7 6 8 9 9 7 7 8 9 7 5 4 6 11 9 13 12 13 13 12 11 10 10 10 10 5 3 4 3 3 2 1 2 2 3 1 2 2 2 2 2 3 3 3 4 4 4 5 6 6 6 6 6 7 7 7 9 9 9 9 10 10 8 10 9 10 10 9 8 9 8 9
8 7 7 8 8 7 6 6 7 8 7 7 7 6 6 5 4 5 5 7 7 7 8 8 5 2 6 2 4 11 13 12 11 11 10 9 8 4 4 6 7 6 5 4 3 3 3 3 3 3 3 2 3 3 3 3 4 4 4 5 5 6 6 6 7 8 7 7 7 8 8 9 9 10 9 10 9 9 9 8 9 10 10 11 10
8 8 8 7 7 7 6 8 7 7 8 7 6 7 7 7 7 8 7 8 8 9 10 8 7 9 9 9 6 3 7 10 9 7 7 7 5 3 5 4 4 6 5 4 3 3 4 5 4 4 4 3 3 4 4 3 3 4 4 5 5 5 8 8 8 7 7 7 7 7 8 8 9 9 9 10 10 10 10 10 9 10 10 10 8
6 7 7 9 7 7 6 6 7 8 8 8 8 8 9 9 8 8 8 8 9 9 9 10 10 10 9 8 8 6 7 6 7 8 6 4 3 4 4 4 4 4 4 5 3 3 5 6 5 4 4 4 5 4 4 4 3 3 4 4 5 4 5 5 6 6 7 7 7 7 7 8 8 8 9 9 9 9 10 10 10 9 9 9 8
7 6 7 8 6 7 6 6 6 7 8 9 9 9 8 9 11 11 10 10 10 10 12 12 12 10 8 8 9 8 9 8 7 7 7 7 6 6 5 6 6 6 6 6 6 5 6 7 6 5 5 5 4 5 6 5 4 4 3 4 4 4 4 4 5 6 6 7 7 7 7 8 8 8 8 8 8 9 10 10 9 8 7 7 8
6 6 5 7 7 6 6 7 8 10 10 10 10 10 11 11 10 9 10 10 9 10 11 12 12 8 9 11 14 13 9 9 8 7 8 8 7 7 7 7 7 7 6 6 6 6 6 7 7 6 5 5 5 5 5 4 3 2 3 3 3 4 4 4 4 5 6 6 7 7 8 8 8 8 8 8 10 10 9 9 9 8 7 6 6
7 7 7 7 8 8 8 9 10 10 9 9 9 11 10 9 9 9 11 11 9 11 14 10 10 9 10 18 18 18 9 6 6 7 6 7 7 7 7 7 7 7 7 7 6 7 6 7 7 7 7 5 5 4 4 4 3 3 3 3 3 4 4 4 4 5 6 6 7 7 7 8 9 8 8 9 8 9 9 9 8 8 7 6 6
8 7 7 6 8 10 10 9 7 7 9 10 10 8 8 7 8 9 11 10 10 10 15 15 11 9 10 15 15 16 8 7 6 8 7 7 7 6 6 7 7 7 6 6 5 6 6 7 7 7 6 6 5 5 5 6 3 3 3 3 4 4 5 5 4 5 5 6 6 7 8 8 8 7 8 7 8 8 8 9 9 8 7 6 6
7 7 7 8 8 7 7 7 9 9 9 9 9 8 8 8 7 8 10 10 10 9 14 12 9 11 11 11 12 9 8 8 7 7 7 7 7 7 6 6 6 6 5 5 5 5 6 7 7 7 5 5 5 4 6 6 4 4 3 4 5 6 5 4 5 5 5 6 7 7 8 8 8 8 8 8 7 8 8 9 9 9 8 6 6
7 7 8 8 9 9 9 9 9 9 9 8 9 9 9 10 10 10 10 10 10 8 10 11 10 10 10 11 10 10 9 8 8 7 7 7 7 6 6 6 6 6 5 5 5 4 5 7 7 5 4 5 5 5 6 6 5 5 5 4 5 6 6 6 6 6 6 6 6 7 7 7 8 8 8 7 7 7 7 7 8 8 8 7 6
7 7 7 8 8 8 9 9 8 8 9 12 14 14 12 11 12 11 11 11 10 11 11 11 12 11 11 14 10 8 9 8 9 8 7 6 6 6 5 6 6 6 6 6 6 5 7 7 7 6 6 5 5 6 7 6 5 5 4 5 6 6 6 6 7 7 6 5 5 5 6 7 7 7 9 8 7 6 6 7 7 6 7 7 6
7 7 7 7 8 8 8 7 7 9 10 10 11 14 12 12 13 11 9 11 11 10 12 13 14 14 13 11 12 11 9 10 10 8 8 7 7 6 6 6 6 6 6 6 5 6 7 7 6 6 6 4 5 6 7 7 5 5 4 5 5 6 6 6 6 6 6 6 5 4 5 6 7 7 9 7 6 6 7 6 6 7 6 6 6
7 7 8 8 8 8 9 8 10 10 10 11 11 10 11 10 10 11 10 10 11 9 13 10 5 8 9 10 9 11 8 8 7 6 6 7 7 6 6 6 6 6 6 6 5 6 7 6 7 6 6 5 5 6 6 6 5 5 4 5 5 6 7 8 7 7 7 6 5 4 4 5 6 6 7 7 6 6 6 6 6 6 6 5 6
7 7 7 8 9 9 9 10 10 10 11 10 10 10 10 11 11 10 10 10 10 9 10 15 9 11 11 10 9 9 9 7 10 8 7 7 7 6 7 7 6 6 6 6 6 6 7 7 7 6 6 6 6 7 7 5 5 5 4 5 6 10 12 13 9 8 10 7 5 3 3 4 5 6 6 6 6 6 5 6 6 6 6 5 5
7 7 8 8 9 9 8 8 9 10 9 10 11 11 11 11 11 11 12 11 9 10 10 11 10 12 12 11 9 10 10 10 8 8 7 7 7 6 6 6 7 6 6 6 6 7 7 6 6 5 5 5 6 7 6 6 5 5 4 6 8 12 13 14 14 14 10 3 5 3 3 4 5 5 5 6 6 6 6 6 5 6 5 5 5
8 8 8 8 8 8 8 9 9 9 10 11 11 11 11 11 11 10 10 11 11 10 11 12 10 10 9 11 7 8 9 9 7 7 7 7 7 7 6 7 7 6 6 6 6 7 6 6 6 5 5 5 6 7 6 6 5 5 7 10 13 14 14 13 9 10 11 8 4 3 2 4 4 6 5 5 5 5 7 6 6 5 5 5 5
Wind_Direction
151 148 141 137 137 139 139 138 135 136 135 138 134 137 136 136 136 134 124 127 129 126 122 125 124 123 119 115 116 117 112 105 106 111 105 103 89 101 82 77 81 63 68 49 52 55 42 26 7 353 357 1 340 338 345 341 350 345 328 333 284 279 281 283 285 291 296 290 280 305 331 336 320 351 326 322 320 315 309 308 308 307 306 306 305
150 143 142 142 139 136 135 133 135 135 132 133 130 133 134 132 132 127 124 132 129 119 121 125 123 122 117 118 116 115 112 116 124 115 115 106 93 85 102 85 78 67 61 45 27 30 29 18 350 343 345 344 324 330 328 333 346 349 331 318 292 291 279 290 286 289 293 307 311 316 313 345 313 333 327 322 318 318 315 313 307 306 308 308 307
147 142 139 136 133 132 132 134 132 131 126 128 128 129 126 125 132 124 122 119 101 123 130 128 125 121 116 120 121 117 118 117 115 108 106 106 100 81 77 77 71 60 49 39 25 14 21 3 322 330 337 352 338 329 328 338 337 346 325 317 307 292 287 261 288 295 299 299 305 315 320 325 323 322 322 314 309 309 310 315 318 313 307 305 302
138 133 127 123 129 128 125 126 126 128 125 127 125 124 124 120 119 116 116 115 121 118 124 128 124 124 124 123 121 120 112 106 96 88 95 96 90 85 73 66 63 63 65 44 24 23 4 0 346 353 350 353 340 340 339 341 344 338 324 315 304 298 286 281 260 275 295 300 306 316 321 321 318 317 314 306 308 310 310 311 311 308 307 307 307
131 127 129 126 128 127 127 131 129 126 123 125 125 124 123 122 119 118 121 123 127 127 120 123 124 128 127 125 118 108 108 105 97 87 78 80 85 80 70 67 65 69 73 64 26 26 11 9 342 351 353 348 335 343 336 341 338 337 331 319 314 301 297 289 284 278 288 293 301 306 311 304 300 304 312 317 319 318 312 307 307 303 306 299 298
135 133 135 133 134 134 135 134 134 132 131 129 132 131 130 127 123 124 135 133 132 132 132 129 126 119 110 109 106 103 95 88 87 88 82 76 73 73 76 76 81 66 54 38 28 21 10 355 344 342 345 351 333 331 338 335 333 331 324 318 312 307 303 296 287 287 283 286 291 302 307 313 314 307 321 320 314 313 314 312 308 306 306 307 299
139 136 140 138 140 145 144 141 136 137 137 135 133 132 131 132 135 143 145 140 140 135 126 117 111 113 113 108 103 102 94 86 85 84 80 74 79 84 78 78 69 64 55 42 28 17 3 341 332 342 347 342 335 328 326 324 323 319 311 310 309 309 305 297 292 287 285 288 290 286 298 303 304 310 321 318 301 299 306 313 315 317 319 313 308
142 139 141 143 144 143 138 135 137 136 135 136 137 134 135 139 142 138 137 137 136 135 133 125 122 113 113 108 107 102 97 91 88 90 89 92 91 85 85 78 65 52 49 34 28 8 348 338 347 348 344 329 323 315 321 315 315 315 311 311 306 305 301 301 301 303 301 298 297 305 302 304 307 298 303 310 307 305 314 316 306 312 311 307 301
151 151 147 149 149 141 137 138 136 135 138 136 133 135 136 134 131 130 128 127 123 125 127 126 121 111 101 102 101 92 90 92 99 102 97 90 89 84 80 71 62 50 41 32 17 7 351 352 352 341 331 327 329 332 330 334 334 327 316 315 313 312 313 311 312 308 302 297 300 300 302 303 303 314 318 324 325 316 313 310 299 297 300 301 297
150 151 152 149 143 143 140 137 138 136 137 136 137 138 136 135 134 133 132 129 126 125 120 115 114 118 116 106 98 93 90 89 95 98 98 102 92 91 79 70 63 57 46 27 3 359 351 350 339 333 332 332 335 336 341 340 337 333 327 329 325 321 315 311 307 306 303 305 308 312 311 307 308 315 311 308 309 304 304 311 305 307 302 294 289
155 155 154 150 149 146 144 147 146 147 143 137 141 141 141 141 138 135 133 133 130 129 123 117 116 117 117 116 105 98 94 91 87 82 82 87 92 83 77 65 63 52 45 35 352 338 335 340 335 327 327 335 337 339 342 337 333 330 328 325 324 320 319 315 309 307 303 296 301 305 301 301 302 307 307 306 302 302 304 304 303 308 308 312 312
162 166 158 154 156 156 155 153 151 149 148 152 150 148 144 143 143 142 139 135 133 126 118 119 119 120 113 107 103 103 97 87 84 81 81 88 91 84 78 71 62 52 43 18 345 333 321 327 326 323 328 336 335 322 320 326 328 325 325 324 320 316 309 306 310 310 308 306 302 296 299 297 301 304 306 310 311 308 308 305 304 307 306 308 303
165 162 160 159 164 165 161 159 156 157 161 155 151 150 151 148 148 148 147 143 132 125 127 121 119 117 114 112 108 101 91 86 88 87 89 88 81 77 72 69 57 46 21 0 331 318 313 321 325 328 323 332 322 305 290 289 303 312 315 315 310 306 306 305 303 299 300 296 296 295 296 299 297 298 303 304 306 302 307 307 308 310 309 300 301
167 166 164 169 168 167 165 163 163 162 157 155 155 157 156 156 152 144 136 135 129 124 121 117 118 115 117 116 111 102 90 87 90 90 90 86 78 75 67 58 54 43 16 320 308 309 313 331 331 332 322 320 310 298 295 298 300 300 296 296 290 290 294 295 297 298 295 287 285 288 293 293 291 296 301 305 311 310 309 305 310 308 307 302 300
171 170 171 172 170 167 166 166 164 161 158 158 158 159 155 146 145 148 144 142 140 137 135 125 119 119 121 119 113 101 87 86 88 88 90 86 78 74 61 60 63 46 332 294 282 296 306 318 318 322 330 335 317 323 319 313 311 309 302 294 291 289 288 290 288 285 283 280 278 279 288 292 292 301 309 314 307 304 305 302 304 302 293 291 285
172 168 175 176 174 171 166 164 161 159 159 159 159 157 154 154 148 145 128 114 105 110 102 111 123 123 124 120 112 98 81 82 87 88 90 89 84 74 86 81 134 144 275 204 311 302 295 299 303 335 340 323 315 326 328 328 320 311 305 299 295 295 290 300 305 307 305 301 298 299 306 309 310 310 310 311 311 308 303 301 298 294 300 299 297
179 177 179 178 178 175 171 166 165 165 164 162 162 159 155 148 142 144 131 133 131 125 127 119 124 122 117 115 109 100 83 77 90 91 92 98 89 90 115 134 146 148 116 72 272 308 300 309 336 345 325 303 310 330 332 334 320 313 310 310 310 308 309 304 303 309 313 313 314 313 311 312 312 312 312 313 313 315 313 309 309 314 308 309 305
183 182 185 182 179 176 175 171 168 167 167 168 162 157 149 142 152 159 146 145 136 136 131 117 109 108 111 107 105 106 94 76 93 94 98 105 109 115 141 151 170 152 106 40 18 341 326 358 349 323 312 298 326 335 334 335 322 318 319 323 326 326 317 319 317 312 317 317 314 312 310 309 310 309 308 311 317 324 321 311 312 307 304 304 306
186 187 184 176 174 174 171 169 169 167 168 166 161 157 159 155 147 135 130 124 126 129 127 118 112 96 95 100 96 96 98 76 92 101 102 109 114 131 138 149 126 79 54 29 357 347 342 344 340 331 325 327 334 334 335 337 332 335 337 332 326 322 322 329 331 332 333 329 321 320 310 309 302 297 297 311 320 320 304 300 304 304 306 309 304
183 170 163 164 163 161 164 166 168 169 165 151 148 148 135 132 140 131 123 123 126 123 118 116 113 105 98 93 92 96 99 83 89 107 108 101 110 125 143 129 89 61 26 356 320 340 337 342 329 326 331 333 335 336 340 343 344 346 341 328 322 322 331 331 333 330 319 314 312 314 310 310 309 305 306 310 313 308 311 299 296 304 302 303 304
165 167 160 159 163 166 164 169 167 164 158 152 142 135 141 140 133 131 129 123 118 117 117 116 109 104 97 92 92 92 92 89 90 114 110 104 94 101 119 69 73 68 341 301 340 341 335 335 303 317 330 334 340 345 346 348 351 351 327 328 331 328 333 331 327 326 314 311 312 313 315 319 319 315 311 313 313 315 310 320 307 306 304 299 296
158 157 163 165 162 162 162 158 157 153 147 144 141 135 120 121 129 131 130 131 128 122 123 118 114 108 98 91 95 94 88 92 103 110 108 100 92 86 116 71 44 107 271 345 333 320 325 316 297 316 332 344 350 350 355 357 355 342 340 342 339 340 340 327 318 316 313 315 316 320 326 330 329 328 328 324 323 323 328 324 318 309 299 290 299
147 147 146 150 154 152 150 151 149 145 144 141 135 131 130 127 129 132 134 132 131 131 131 131 125 121 116 114 106 93 100 79 124 109 106 107 93 79 68 61 28 32 199 280 306 302 290 293 277 323 347 352 355 2 3 2 359 351 351 350 349 345 339 321 316 313 317 325 328 330 329 332 330 331 327 325 324 327 326 320 314 311 308 306 300
132 136 141 142 138 140 141 137 132 136 140 138 134 136 139 136 135 143 144 141 141 137 141 139 138 140 138 135 130 129 146 200 123 117 116 103 85 71 52 43 24 50 33 218 273 281 283 293 321 349 359 1 7 6 4 4 0 358 358 358 355 345 328 325 325 331 332 329 328 326 329 330 328 323 323 320 323 324 317 315 314 311 309 307 306
144 147 149 149 148 146 139 144 148 147 153 151 147 146 141 147 140 151 144 146 148 149 157 160 160 153 140 145 151 162 185 171 171 142 145 138 95 66 47 36 355 313 224 235 244 243 300 341 357 7 9 11 10 5 2 357 0 0 360 360 352 333 339 337 340 338 331 330 327 322 320 324 318 310 302 308 313 309 311 311 306 300 297 295 298
154 157 155 156 156 152 147 148 150 153 154 161 159 157 155 157 152 153 155 153 155 153 158 159 146 140 147 149 162 171 177 151 178 230 237 215 219 159 67 274 266 280 277 264 279 325 3 27 22 31 17 8 14 358 359 348 354 355 358 356 344 347 341 345 342 340 332 328 327 323 318 313 315 308 306 312 313 320 318 317 321 325 327 327 324
155 159 162 160 157 160 160 159 155 153 151 143 139 150 157 151 151 155 161 159 159 157 159 160 147 158 161 161 158 163 165 174 188 219 212 197 219 173 193 231 245 239 252 247 75 67 48 46 63 42 26 13 14 6 359 346 339 336 341 346 347 345 343 348 344 333 329 324 320 316 314 307 302 308 318 320 322 319 321 319 319 320 321 327 325
165 168 166 163 166 168 166 160 157 156 162 161 157 160 172 172 166 170 170 169 160 166 159 169 180 170 163 163 159 158 178 193 202 200 216 179 186 185 200 218 223 199 231 144 106 110 94 57 66 37 35 16 357 353 337 341 337 341 344 340 341 336 338 340 332 322 315 310 301 303 304 311 314 316 317 323 319 316 320 321 322 319 329 330 331
158 157 159 160 166 169 165 165 163 158 156 161 163 164 174 177 175 156 99 140 178 166 171 181 184 182 170 166 162 167 184 199 209 195 202 191 188 194 209 218 202 210 212 124 113 96 111 74 83 42 33 20 357 350 338 342 344 346 341 337 343 337 338 346 340 332 323 315 312 310 309 311 312 314 319 313 319 322 321 320 322 323 323 329 328
155 166 166 170 169 166 168 167 166 165 165 164 154 122 71 113 130 162 155 174 178 195 170 178 179 166 165 178 176 166 181 177 191 195 196 201 202 197 198 187 171 157 140 114 123 103 77 83 56 47 32 16 354 347 346 345 341 345 342 342 339 338 344 339 328 325 320 315 309 310 311 314 315 320 318 321 316 316 324 330 324 330 331 336 330
168 170 174 184 181 177 172 171 174 171 171 167 160 149 139 147 155 157 162 160 154 151 163 157 158 161 160 157 175 172 155 169 185 190 199 202 197 189 172 162 147 132 132 108 60 91 81 64 48 36 29 6 341 344 344 344 341 336 332 331 329 340 337 330 324 322 319 314 315 315 315 317 319 323 320 318 320 322 322 323 322 330 336 334 331
178 184 184 182 178 183 181 176 170 170 171 168 164 159 156 140 139 163 166 167 166 170 170 163 164 168 174 170 168 174 179 182 181 192 197 200 190 171 159 143 129 118 117 111 94 83 89 86 65 38 16 6 341 335 339 333 327 324 324 333 334 335 332 323 324 318 314 316 321 324 321 325 324 322 320 320 324 324 324 328 335 337 337 336 334
183 183 183 181 181 180 178 179 181 177 169 171 178 172 165 165 154 149 169 181 185 181 173 171 172 175 176 180 180 172 168 175 185 188 194 191 177 166 154 139 121 114 92 69 109 103 96 92 81 32 3 328 307 318 320 323 320 321 326 328 323 321 315 308 316 308 315 326 325 321 322 325 327 324 323 324 328 326 328 329 331 337 335 335 335
190 182 183 182 179 184 187 187 184 186 185 180 176 176 180 177 170 158 151 154 166 174 180 182 181 181 183 182 179 181 184 182 183 188 188 181 171 164 148 127 106 91 104 124 112 124 124 110 120 217 238 289 288 304 309 313 318 316 317 316 305 301 304 308 313 320 325 328 324 321 325 327 329 326 324 322 321 321 320 329 333 339 342 342 336
185 184 179 180 190 192 191 189 190 184 181 186 185 183 183 180 167 167 170 173 175 175 172 177 186 184 181 174 175 178 181 181 185 190 186 176 171 163 139 106 84 33 54 89 121 132 155 188 195 235 237 255 279 299 297 299 301 311 313 308 301 299 305 312 320 327 328 326 324 327 331 330 328 328 325 323 324 329 330 329 334 341 336 334 336
188 188 186 187 192 198 195 196 191 188 188 192 191 184 175 173 180 186 182 172 160 152 147 161 143 178 164 160 179 183 181 181 182 183 179 177 170 152 124 166 141 151 140 150 155 208 182 213 193 231 232 241 256 272 270 282 285 293 290 289 297 300 305 315 327 333 329 324 325 329 328 325 328 327 322 314 318 323 326 329 333 336 332 331 334
193 196 194 196 194 191 193 194 199 196 189 182 178 178 173 177 170 165 169 171 160 155 156 148 128 166 161 140 213 187 178 175 178 179 175 176 176 152 158 164 166 159 167 183 181 204 219 243 217 211 237 229 247 256 261 271 275 281 291 289 286 295 304 322 332 332 327 326 326 324 324 323 326 329 326 322 322 324 325 327 330 331 332 332 332
204 201 201 188 184 185 185 194 194 178 185 186 187 181 175 175 176 173 174 176 168 160 158 164 169 170 172 187 184 197 174 166 164 159 158 145 117 120 140 148 156 163 186 191 194 203 233 244 231 214 236 230 233 251 251 259 261 270 278 284 289 285 323 328 326 325 324 322 322 323 324 323 325 326 327 323 322 324 328 330 331 331 331 334 337
220 216 200 188 189 190 190 186 184 185 191 187 190 182 184 179 176 177 180 176 170 170 168 169 177 181 184 170 170 175 149 157 175 185 173 167 163 164 159 166 165 192 196 198 212 208 215 235 241 230 229 225 231 239 243 249 255 260 271 282 291 298 314 321 327 327 326 322 321 320 322 322 322 326 325 321 319 323 325 325 329 332 332 331 332
208 212 206 194 193 195 187 193 188 191 196 187 194 189 184 186 189 187 179 173 179 178 177 179 181 183 173 165 175 167 174 191 189 185 176 182 184 189 176 183 190 196 200 202 201 207 222 238 233 228 234 233 231 235 241 241 247 256 268 280 286 301 306 311 315 321 320 317 317 319 321 321 320 321 320 320 319 324 325 325 326 329 327 325 322
212 202 198 202 195 188 191 193 200 203 197 199 196 191 198 195 191 182 179 183 178 182 185 182 178 171 168 178 178 177 181 188 185 184 186 182 187 186 196 193 192 201 205 196 204 210 215 226 241 235 237 233 236 234 247 247 256 273 277 281 288 290 296 296 300 306 311 316 318 320 320 318 319 322 323 321 324 323 322 321 322 324 323 319 319
202 203 202 202 191 197 201 208 210 205 201 198 198 200 200 193 185 184 186 182 184 182 171 182 178 176 176 179 182 185 182 190 183 182 186 187 189 200 197 199 200 200 198 200 195 205 219 227 232 230 230 238 240 250 249 258 259 268 275 284 284 290 293 295 295 303 312 316 318 319 317 319 318 317 315 315 319 322 322 323 322 323 323 326 324
204 206 205 197 201 206 209 213 203 202 206 203 207 201 197 192 192 193 188 189 186 184 178 164 165 165 174 184 186 189 175 187 187 190 189 191 194 200 203 204 204 206 206 204 198 196 209 222 231 232 230 233 228 234 242 245 249 263 276 284 291 285 287 284 291 298 307 313 316 318 317 314 315 312 313 315 321 321 321 321 322 324 324 328 327
205 208 206 208 209 211 213 208 209 210 209 205 197 195 193 193 192 186 190 196 198 197 183 170 173 164 172 184 189 188 178 188 191 194 191 193 195 201 205 202 207 211 214 212 221 211 214 223 232 237 237 240 238 241 241 243 234 236 257 274 284 284 280 282 286 292 300 307 313 318 318 316 315 314 313 316 320 324 322 324 324 325 325 326 327
214 212 212 211 211 211 214 210 210 207 201 194 198 202 197 196 194 192 193 196 197 194 188 187 184 178 179 182 185 186 184 187 190 189 195 195 199 203 200 202 204 210 210 217 218 215 221 229 233 233 243 246 244 243 246 243 232 225 226 238 252 267 270 276 276 281 284 290 304 312 315 314 314 314 312 312 319 318 315 319 322 322 322 323 330
212 214 217 220 219 219 216 213 208 203 203 205 194 179 190 196 194 195 197 197 193 191 187 187 180 182 182 171 178 183 188 188 190 189 191 195 198 202 199 201 205 207 209 211 211 208 219 222 227 230 234 238 241 244 247 245 243 233 232 230 243 253 263 273 280 277 274 280 286 299 307 308 307 306 309 312 312 311 307 310 312 312 313 312 315
208 214 217 219 220 223 223 217 207 210 209 211 211 210 207 207 203 205 204 200 195 193 182 172 175 177 164 179 176 178 186 172 177 192 198 197 197 197 197 199 202 213 215 216 210 213 220 227 226 224 231 235 237 242 245 244 242 244 239 243 243 256 261 266 273 283 286 272 264 274 293 302 303 306 309 310 304 308 306 307 309 312 311 311 308
213 217 221 221 221 223 221 214 220 220 216 217 215 210 213 210 205 207 204 198 198 196 176 167 177 174 184 185 180 175 184 185 191 195 196 200 202 198 196 198 204 209 211 217 221 217 219 222 225 225 231 239 242 246 244 242 242 243 249 250 251 250 262 271 274 276 276 263 246 255 273 290 294 297 302 305 306 305 310 309 312 307 309 305 309
214 217 222 222 225 224 221 216 218 216 218 219 218 216 212 210 211 208 202 200 200 201 190 168 180 187 184 178 167 161 166 184 168 192 200 202 199 199 199 201 204 204 203 218 219 220 223 224 223 220 223 233 236 243 249 250 245 245 249 254 256 263 271 276 277 272 275 269 248 247 269 277 286 293 296 299 298 301 296 296 298 302 305 304 299
216 219 224 225 228 232 230 227 225 224 221 217 217 219 213 210 210 205 201 197 201 188 173 191 197 187 172 175 178 179 177 184 192 198 199 200 199 199 199 202 206 208 209 214 217 217 222 224 222 225 227 232 237 242 244 248 249 248 251 255 263 272 276 277 279 280 280 268 259 240 249 278 285 287 286 286 290 298 296 294 299 301 300 302 300
219 222 226 228 231 231 228 229 228 227 224 223 222 221 216 214 211 204 198 202 201 192 188 179 176 178 193 184 188 188 193 195 197 196 198 198 198 196 201 204 210 212 216 216 219 219 220 219 219 222 228 233 239 241 244 244 248 248 252 259 268 272 271 272 273 275 280 291 261 225 259 278 294 298 300 301 304 299 302 305 302 300 300 296 295